| time (UTC) | temp F | wind direction | speed knots | gust knots | rain 1hr in | rain 24hr in | rain mn in | humidity % | barometer mb |
| 20260506084555 | 51 | 149 | 0.0 | 0.0 | 0.00 | 0.00 | 0.00 | 61 | 1020.1 |
| 20260506083056 | 52 | 59 | 0.0 | 0.0 | 0.00 | 0.00 | 0.00 | 62 | 1020.0 |
| 20260506081603 | 52 | 61 | 0.0 | 0.0 | 0.00 | 0.00 | 0.00 | 63 | 1020.1 |
| 20260506073041 | 55 | 66 | 0.0 | 0.9 | 0.00 | 0.00 | 0.00 | 62 | 1019.7 |
| 20260506071543 | 56 | 71 | 0.0 | 0.0 | 0.00 | 0.00 | 0.00 | 62 | 1019.7 |
| 20260506061536 | 57 | 71 | 0.0 | 0.0 | 0.00 | 0.00 | 0.00 | 61 | 1019.4 |
| 20260506050131 | 57 | 71 | 0.0 | 0.0 | 0.00 | 0.00 | 0.00 | 62 | 1019.0 |
| 20260506044542 | 58 | 78 | 0.0 | 0.0 | 0.00 | 0.00 | 0.00 | 62 | 1018.9 |
| 20260506043025 | 58 | 175 | 0.0 | 0.0 | 0.00 | 0.00 | 0.00 | 62 | 1018.9 |
| 20260506041522 | 58 | 174 | 0.0 | 0.9 | 0.00 | 0.00 | 0.00 | 61 | 1018.8 |
| 20260506040022 | 58 | 221 | 0.0 | 2.6 | 0.00 | 0.00 | 0.00 | 61 | 1018.6 |
| 20260506034520 | 58 | 172 | 0.0 | 0.0 | 0.00 | 0.00 | 0.00 | 61 | 1018.5 |
| 20260506033026 | 58 | 165 | 0.0 | 1.7 | 0.00 | 0.00 | 0.00 | 61 | 1018.2 |
| 20260506031616 | 58 | 184 | 0.0 | 1.7 | 0.00 | 0.00 | 0.00 | 60 | 1018.0 |
| 20260506030015 | 58 | 216 | 0.0 | 2.6 | 0.00 | 0.00 | 0.00 | 60 | 1017.8 |
| 20260506024519 | 58 | 225 | 0.0 | 4.3 | 0.00 | 0.00 | 0.00 | 59 | 1017.8 |
| 20260506023012 | 59 | 195 | 1.7 | 3.5 | 0.00 | 0.00 | 0.00 | 58 | 1017.9 |
| 20260506021514 | 59 | 204 | 1.7 | 7.0 | 0.00 | 0.00 | 0.00 | 57 | 1017.8 |
| 20260506020016 | 59 | 231 | 0.9 | 4.3 | 0.00 | 0.00 | 0.00 | 55 | 1017.6 |
| 20260506014510 | 59 | 221 | 1.7 | 7.0 | 0.00 | 0.00 | 0.00 | 54 | 1017.6 |
| 20260506013013 | 60 | 209 | 5.2 | 8.7 | 0.00 | 0.00 | 0.00 | 53 | 1017.4 |
| 20260506011516 | 61 | 215 | 1.7 | 7.0 | 0.00 | 0.00 | 0.00 | 50 | 1017.3 |
| 20260506010027 | 62 | 287 | 3.5 | 8.7 | 0.00 | 0.00 | 0.00 | 49 | 1017.2 |
| 20260506004507 | 63 | 214 | 5.2 | 7.8 | 0.00 | 0.00 | 0.00 | 49 | 1017.2 |
| 20260506003006 | 63 | 194 | 5.2 | 10.4 | 0.00 | 0.00 | 0.00 | 48 | 1017.1 |
| 20260506001505 | 63 | 237 | 5.2 | 9.6 | 0.00 | 0.00 | 0.00 | 49 | 1017.1 |
| 20260506000005 | 62 | 226 | 2.6 | 7.0 | 0.00 | 0.00 | 0.00 | 52 | 1016.9 |
| 20260505234504 | 62 | 265 | 4.3 | 10.4 | 0.00 | 0.00 | 0.00 | 50 | 1017.0 |
| 20260505233008 | 63 | 216 | 3.5 | 11.3 | 0.00 | 0.00 | 0.00 | 51 | 1016.9 |
| 20260505231513 | 63 | 236 | 4.3 | 9.6 | 0.00 | 0.00 | 0.00 | 50 | 1017.0 |
| 20260505230002 | 63 | 174 | 2.6 | 7.8 | 0.00 | 0.00 | 0.00 | 53 | 1017.0 |
| 20260505224601 | 63 | 221 | 1.7 | 7.0 | 0.00 | 0.00 | 0.00 | 52 | 1017.0 |
| 20260505223100 | 63 | 226 | 2.6 | 7.8 | 0.00 | 0.00 | 0.00 | 53 | 1017.2 |
| 20260505221600 | 63 | 225 | 2.6 | 6.1 | 0.00 | 0.00 | 0.00 | 52 | 1017.2 |
| 20260505220059 | 63 | 225 | 1.7 | 7.0 | 0.00 | 0.00 | 0.00 | 52 | 1017.3 |
| 20260505214628 | 63 | 211 | 3.5 | 9.6 | 0.00 | 0.00 | 0.00 | 52 | 1017.3 |
| 20260505213106 | 62 | 186 | 2.6 | 8.7 | 0.00 | 0.00 | 0.00 | 52 | 1017.5 |
| 20260505211557 | 63 | 274 | 3.5 | 10.4 | 0.00 | 0.00 | 0.00 | 51 | 1017.5 |
| 20260505210056 | 63 | 250 | 5.2 | 8.7 | 0.00 | 0.00 | 0.00 | 49 | 1017.5 |
| 20260505204555 | 63 | 180 | 1.7 | 8.7 | 0.00 | 0.00 | 0.00 | 50 | 1017.4 |
| 20260505203054 | 64 | 213 | 5.2 | 10.4 | 0.00 | 0.00 | 0.00 | 48 | 1017.4 |
| 20260505201556 | 62 | 227 | 3.5 | 8.7 | 0.00 | 0.00 | 0.00 | 48 | 1017.5 |
| 20260505200050 | 62 | 157 | 1.7 | 8.7 | 0.00 | 0.00 | 0.00 | 50 | 1017.6 |
| 20260505194549 | 61 | 228 | 4.3 | 8.7 | 0.00 | 0.00 | 0.00 | 50 | 1017.8 |
| 20260505193048 | 62 | 166 | 0.0 | 7.0 | 0.00 | 0.00 | 0.00 | 49 | 1017.7 |
| 20260505191600 | 61 | 232 | 2.6 | 7.0 | 0.00 | 0.00 | 0.00 | 48 | 1017.8 |
| 20260505190045 | 60 | 209 | 2.6 | 5.2 | 0.00 | 0.00 | 0.00 | 50 | 1017.9 |
| 20260505184543 | 60 | 150 | 0.0 | 2.6 | 0.00 | 0.00 | 0.00 | 53 | 1017.9 |
| 20260505183102 | 59 | 186 | 0.0 | 5.2 | 0.00 | 0.00 | 0.00 | 54 | 1017.8 |
| 20260505181535 | 58 | 212 | 0.9 | 4.3 | 0.00 | 0.00 | 0.00 | 55 | 1017.8 |
| 20260505180034 | 58 | 198 | 0.9 | 4.3 | 0.00 | 0.00 | 0.00 | 56 | 1017.6 |
| 20260505174533 | 58 | 209 | 0.9 | 4.3 | 0.00 | 0.00 | 0.00 | 57 | 1017.5 |
| 20260505173042 | 58 | 199 | 1.7 | 4.3 | 0.00 | 0.00 | 0.00 | 57 | 1017.3 |
| 20260505171542 | 58 | 202 | 0.9 | 4.3 | 0.00 | 0.00 | 0.00 | 57 | 1017.4 |
| 20260505170030 | 58 | 186 | 1.7 | 4.3 | 0.00 | 0.00 | 0.00 | 55 | 1017.4 |
| 20260505164528 | 58 | 196 | 0.9 | 4.3 | 0.00 | 0.00 | 0.00 | 54 | 1017.3 |
| 20260505163027 | 58 | 194 | 1.7 | 3.5 | 0.00 | 0.00 | 0.00 | 54 | 1017.1 |
| 20260505161524 | 58 | 165 | 0.9 | 5.2 | 0.00 | 0.00 | 0.00 | 54 | 1016.8 |
| 20260505153016 | 55 | 171 | 0.0 | 0.0 | 0.00 | 0.00 | 0.00 | 55 | 1016.9 |
| 20260505151511 | 54 | 194 | 0.0 | 0.0 | 0.00 | 0.00 | 0.00 | 55 | 1016.8 |
| 20260505124502 | 51 | 136 | 0.0 | 0.0 | 0.00 | 0.00 | 0.00 | 59 | 1016.1 |
| 20260505123100 | 51 | 170 | 0.0 | 0.0 | 0.00 | 0.00 | 0.00 | 58 | 1016.1 |
| 20260505123002 | 51 | 170 | 0.0 | 0.0 | 0.00 | 0.00 | 0.00 | 58 | 1016.1 |
| 20260505121559 | 51 | 117 | 0.0 | 0.0 | 0.00 | 0.00 | 0.00 | 58 | 1016.1 |
| 20260505120119 | 51 | 117 | 0.0 | 0.0 | 0.00 | 0.00 | 0.00 | 57 | 1016.0 |
| 20260505114600 | 52 | 117 | 0.0 | 0.0 | 0.00 | 0.00 | 0.00 | 57 | 1015.9 |
| 20260505113057 | 52 | 117 | 0.0 | 0.0 | 0.00 | 0.00 | 0.00 | 57 | 1015.9 |
| 20260505111557 | 53 | 117 | 0.0 | 0.0 | 0.00 | 0.00 | 0.00 | 57 | 1016.0 |
| 20260505101552 | 51 | 175 | 0.0 | 0.0 | 0.00 | 0.00 | 0.00 | 59 | 1016.1 |
| 20260505100047 | 50 | 167 | 0.0 | 0.0 | 0.00 | 0.00 | 0.00 | 58 | 1016.2 |
| 20260505094545 | 50 | 167 | 0.0 | 0.0 | 0.00 | 0.00 | 0.00 | 58 | 1016.3 |
| 20260505093045 | 50 | 167 | 0.0 | 0.0 | 0.00 | 0.00 | 0.00 | 58 | 1016.3 |
| 20260505091546 | 51 | 167 | 0.0 | 0.0 | 0.00 | 0.00 | 0.00 | 58 | 1016.4 |
| 20260505090047 | 51 | 167 | 0.0 | 0.0 | 0.00 | 0.00 | 0.00 | 58 | 1016.4 |